SL-16 DEB, 20628

Orbit data source: Space-Track

SL-16 DEB, 20628 is space debris in LEO originally from a launch on Tue, 22 May 1990 UTC launched from the Tyuratam Missile And Space Complex (TTMTR). Debris objects in space refer to the collection of defunct objects orbiting the Earth. Examples of debris include non-operational satellites, rocket bodies, and fragments generated from explosions, collisions, or faulty payload assembly.

Loading next visibility...
Identifier
20628, 1990-046E
Orbit
LEO
Country
Flag of CISCIS
Related business
Manufacturer
Yuzhnoe
Mission
Spacecraft
Bus & Motor
SEP MOTOR COVER, Unknown motor
Mass
~0 kg wet, ~1 kg dry
Launch date (UTC)
1990-05-22 (36 years ago)
Launch vehicle
Unknown
Launch site
Tyuratam Missile And Space Complex (TTMTR)
Object type
Payload
Rocket body
Debris
Shape & HBR
Unknown
Radar Cross Section
Small (<0.1 m²)

Expand to show TLE details & history
Last TLE update: 14 hours ago

TLE from 14 hours ago
0 SL-16 DEB
1 20628U 90046E   26093.74685988  .00000135  00000-0  16732-3 0  9993
2 20628  70.9771 320.6161 0208540 321.7318  36.9133 13.72468655795265
Epoch: 2026-04-03T17:55Z
TLE epoch observation values (Epoch: 2026-04-03T17:55:28.693Z)
Latitude
-0.00002°
Longitude
-140.33002°
Altitude
871.377 km
Speed
7.478 km/s
True Right ascension
21h 22m 27s
True Declination
0° 00' 00"
Sunlit
Object was in daylight at epoch
Visualization orbit readout
Latitude
Unknown
Longitude
Unknown
Altitude
Unknown
Speed
Unknown
Apparent Right ascension
Unknown
Apparent Declination
Unknown
Sunlit
N/A
Visualization observer readout
Local Sidereal Time
13:16:06
Azimuth
Unknown
Elevation
Unknown
Doppler factor
Unknown
Orbital elements
Apogee altitude
1,142.317 km
Perigee altitude
835.061 km
Semi-major axis
7,366.826 km
Eccentricity
0.02085
Inclination
70.9771°
RAAN
320.6161°
Arg. of periapsis
321.7318°
True anomaly
38.37893°
Mean anomaly
36.9133°
Eccentric anomaly
37.64304°
Mean motion
3.43259 °/min
Orbital period
104.88 mins
BSTAR
0.00016732
Loading maneuver chart data...
Computing Atmospheric mass density...
Loading historical data...
Loading historical data...
Loading historical data...
Loading historical data...
Loading historical data...
Loading historical data...
Loading historical data...
Other satellites on launch #46 in the year 1990 (1990-05-22 UTC)

Documentation

Showing up to 5 results
|